This is the latest recevied weather packets stored in our database for station/object PD2BVG. If no packets are shown the sender has not sent any weather packets the latest 10 day(s).
| Time | Temp. | Humidity | Pressure | Rain* | Wind** | Luminosity | Snow |
|---|---|---|---|---|---|---|---|
| 1787660651 | 21.67° C | 64% | 1013.8 hPa | 0 mm | - | 417 W/m² | - |
| 1787660591 | 21.67° C | 64% | 1013.7 hPa | 0 mm | - | 264 W/m² | - |
| 1787660531 | 21.67° C | 64% | 1013.8 hPa | 0 mm | - | 264 W/m² | - |
| 1787660471 | 21.67° C | 64% | 1013.9 hPa | 0 mm | - | 343 W/m² | - |
| 1787660409 | 21.67° C | 64% | 1013.8 hPa | 0 mm | - | 436 W/m² | - |
| 1787660348 | 21.67° C | 64% | 1013.8 hPa | 0 mm | - | 433 W/m² | - |
| 1787660286 | 21.67° C | 64% | 1013.8 hPa | 0 mm | - | 473 W/m² | - |
| 1787660226 | 21.67° C | 65% | 1013.8 hPa | 0 mm | - | 558 W/m² | - |
| 1787660167 | 21.11° C | 65% | 1013.8 hPa | 0 mm | - | 601 W/m² | - |
| 1787660106 | 21.11° C | 65% | 1013.8 hPa | 0 mm | - | 658 W/m² | - |
| 1787660045 | 21.11° C | 65% | 1013.9 hPa | 0 mm | - | 656 W/m² | - |
| 1787659984 | 21.11° C | 65% | 1013.9 hPa | 0 mm | - | 596 W/m² | - |
| 1787659925 | 21.11° C | 65% | 1013.8 hPa | 0 mm | - | 621 W/m² | - |
| 1787659864 | 21.11° C | 65% | 1013.9 hPa | 0 mm | - | 647 W/m² | - |
| 1787659806 | 20.56° C | 65% | 1013.8 hPa | 0 mm | - | 601 W/m² | - |
| 1787659744 | 20.56° C | 65% | 1013.9 hPa | 0 mm | - | 352 W/m² | - |
| 1787659685 | 21.11° C | 65% | 1013.7 hPa | 0 mm | - | 352 W/m² | - |
| 1787659624 | 21.11° C | 65% | 1013.9 hPa | 0 mm | - | 306 W/m² | - |
| 1787659564 | 21.11° C | 65% | 1013.9 hPa | 0 mm | - | 415 W/m² | - |
| 1787659502 | 21.11° C | 65% | 1013.8 hPa | 0 mm | - | 415 W/m² | - |
| 1787659442 | 21.11° C | 65% | 1013.9 hPa | 0 mm | - | 415 W/m² | - |
| 1787659381 | 21.11° C | 65% | 1013.9 hPa | 0 mm | - | 412 W/m² | - |
| 1787659321 | 21.11° C | 66% | 1013.8 hPa | 0 mm | - | 347 W/m² | - |
| 1787659258 | 21.11° C | 66% | 1013.8 hPa | 0 mm | - | 320 W/m² | - |
| 1787659198 | 20.56° C | 66% | 1013.9 hPa | 0 mm | - | 331 W/m² | - |
* Rain latest hour (hover to see other rain measurements)
** Current wind speed in m/s (hover to see current wind gust speed)